Lake of the Ozarks Weather Center

Moon Phase Calendar



Lake of the Ozarks Water Level
Online Cameras

 


      

Current Conditions in Four Seasons
3/6/2021 7:46:05 AM

33°F
Feels Like 28
Clear
Humidity
74%
Pressure
30.5"
Wind
1 mph (SSW)
Dew Point
27°F
UV Index
1/10 (Low)
Visibility
6 mi

Hourly Forecast

Date & Time Sat, Mar 6
7:00 AM
Sat, Mar 6
8:00 AM
Sat, Mar 6
9:00 AM
Sat, Mar 6
10:00 AM
Sat, Mar 6
11:00 AM
Sat, Mar 6
12:00 PM
Sat, Mar 6
1:00 PM
Sat, Mar 6
2:00 PM
Sat, Mar 6
3:00 PM
Sat, Mar 6
4:00 PM
Sat, Mar 6
5:00 PM
Sat, Mar 6
6:00 PM
Sat, Mar 6
7:00 PM
Sat, Mar 6
8:00 PM
Sat, Mar 6
9:00 PM
Sat, Mar 6
10:00 PM
Sat, Mar 6
11:00 PM
Sun, Mar 7
12:00 AM
Sun, Mar 7
1:00 AM
Sun, Mar 7
2:00 AM
Sun, Mar 7
3:00 AM
Sun, Mar 7
4:00 AM
Sun, Mar 7
5:00 AM
Sun, Mar 7
6:00 AM
Sun, Mar 7
7:00 AM
Sun, Mar 7
8:00 AM
Sun, Mar 7
9:00 AM
Sun, Mar 7
10:00 AM
Sun, Mar 7
11:00 AM
Sun, Mar 7
12:00 PM
Sun, Mar 7
1:00 PM
Sun, Mar 7
2:00 PM
Sun, Mar 7
3:00 PM
Sun, Mar 7
4:00 PM
Sun, Mar 7
5:00 PM
Sun, Mar 7
6:00 PM
Sun, Mar 7
7:00 PM
Sun, Mar 7
8:00 PM
Sun, Mar 7
9:00 PM
Sun, Mar 7
10:00 PM
Sun, Mar 7
11:00 PM
Mon, Mar 8
12:00 AM
Mon, Mar 8
1:00 AM
Mon, Mar 8
2:00 AM
Mon, Mar 8
3:00 AM
Mon, Mar 8
4:00 AM
Mon, Mar 8
5:00 AM
Mon, Mar 8
6:00 AM
Condition
Clear

Clear

Clear

Clear

Clouds

Clouds

Clouds

Clouds

Clouds

Clouds

Clouds

Clouds

Clear

Clear

Clear

Clear

Clear

Clear

Clear

Clear

Clear

Clear

Clear

Clear

Clear

Clear

Clear

Clouds

Clouds

Clouds

Clouds

Clouds

Clouds

Clouds

Clouds

Clouds

Clear

Clear

Clear

Clear

Clear

Clear

Clear

Clear

Clear

Clear

Clear

Clear
Temperature 33°F36°F42°F47°F51°F54°F57°F56°F57°F57°F56°F50°F47°F46°F45°F44°F44°F43°F43°F42°F42°F41°F41°F40°F40°F45°F50°F55°F59°F61°F63°F63°F63°F62°F60°F54°F51°F50°F49°F48°F47°F46°F46°F45°F44°F44°F43°F43°F
Feels Like 27°F30°F35°F41°F44°F47°F50°F50°F51°F52°F52°F46°F43°F42°F41°F40°F39°F39°F38°F37°F36°F36°F35°F35°F35°F40°F44°F48°F51°F53°F54°F55°F55°F54°F54°F49°F46°F44°F43°F42°F41°F40°F39°F39°F38°F38°F37°F37°F
Cloudiness 0%0%0%1%13%23%36%58%59%56%50%42%0%0%0%0%0%0%0%0%0%0%0%0%0%0%0%15%27%32%98%92%95%95%76%64%0%0%0%0%0%0%0%0%0%0%0%0%
Visibility 6 mi6 mi6 mi6 mi6 mi6 mi6 mi6 mi6 mi6 mi6 mi6 mi6 mi6 mi6 mi6 mi6 mi6 mi6 mi6 mi6 mi6 mi6 mi6 mi6 mi6 mi6 mi6 mi6 mi6 mi6 mi6 mi6 mi6 mi6 mi6 mi6 mi6 mi6 mi6 mi6 mi6 mi6 mi6 mi6 mi6 mi6 mi6 mi
Precipitation 0%0%0%0%0%0%0%0%0%0%0%0%0%0%0%0%0%0%0%0%0%0%0%0%0%0%0%0%0%0%0%0%0%0%0%0%0%0%0%0%0%0%0%0%0%0%0%0%
Humidity 74%72%63%52%46%42%41%45%47%49%57%67%72%75%77%79%80%81%81%80%79%79%79%81%82%72%60%52%45%41%39%40%41%42%49%59%66%69%69%67%69%72%75%76%78%79%80%82%
Dew Point 27°F29°F30°F31°F31°F32°F34°F35°F37°F38°F41°F40°F39°F39°F38°F38°F38°F38°F37°F37°F36°F35°F35°F35°F35°F37°F37°F38°F38°F38°F38°F38°F39°F39°F41°F41°F40°F40°F39°F38°F38°F38°F38°F38°F38°F38°F38°F38°F
Pressure 30.5"30.45"30.42"30.39"30.36"30.36"30.33"30.3"30.27"30.27"30.27"30.3"30.3"30.3"30.3"30.33"30.33"30.33"30.36"30.36"30.36"30.36"30.39"30.39"30.39"30.39"30.39"30.39"30.39"30.39"30.36"30.33"30.33"30.33"30.33"30.36"30.36"30.36"30.36"30.39"30.39"30.39"30.39"30.42"30.39"30.39"30.39"30.42"
Wind Speed 3.4 mph4.4 mph4.6 mph5.2 mph5 mph5.2 mph6 mph5.9 mph5 mph4 mph3.2 mph3.1 mph3.1 mph3.1 mph3.3 mph3.2 mph3.4 mph3.5 mph3.8 mph4 mph4.2 mph4 mph3.7 mph3.9 mph4 mph4.5 mph5.8 mph6.7 mph8.1 mph9.3 mph10 mph10.5 mph10.1 mph9.8 mph6.4 mph5.4 mph5.3 mph5.9 mph6.3 mph6.5 mph6.6 mph6.3 mph6.4 mph6.7 mph6.6 mph6.7 mph6.4 mph6 mph
Wind
Direction
200°
SSW
203°
SSW
203°
SSW
213°
SSW
219°
SW
228°
SW
239°
WSW
249°
WSW
251°
WSW
249°
WSW
243°
WSW
242°
WSW
219°
SW
196°
SSW
194°
SSW
194°
SSW
193°
SSW
196°
SSW
196°
SSW
199°
SSW
211°
SSW
222°
SW
210°
SSW
198°
SSW
206°
SSW
204°
SSW
204°
SSW
214°
SW
214°
SW
218°
SW
223°
SW
227°
SW
232°
SW
228°
SW
220°
SW
214°
SW
212°
SSW
209°
SSW
213°
SSW
213°
SSW
209°
SSW
211°
SSW
210°
SSW
211°
SSW
208°
SSW
206°
SSW
208°
SSW
205°
SSW

Daily Forecast

Date High Low Precip. Humidity
Today
Mar 6

Clouds
57 °F
33 °F
0%
42%
Sunday
Mar 7

Clouds
63 °F
40 °F
0%
41%
Monday
Mar 8

Clouds
62 °F
43 °F
0%
47%
Tuesday
Mar 9

Clouds
59 °F
50 °F
0%
72%
Wednesday
Mar 10

Clouds
67 °F
60 °F
0%
68%
Thursday
Mar 11

Rain
67 °F
54 °F
94%
77%
Friday
Mar 12

Rain
51 °F
42 °F
100%
91%
Saturday
Mar 13

Rain
45 °F
41 °F
100%
93%
Sunday
Mar 14

Snow
46 °F
35 °F
39%
82%
Monday
Mar 15

Rain
51 °F
34 °F
60%
60%
Tuesday
Mar 16

Snow
46 °F
32 °F
89%
67%
Wednesday
Mar 17

Clear
57 °F
31 °F
0%
44%
Thursday
Mar 18

Clear
61 °F
37 °F
0%
57%
Friday
Mar 19

Rain
63 °F
49 °F
43%
61%
Saturday
Mar 20

Snow
56 °F
33 °F
100%
92%
Sunday
Mar 21

Clear
41 °F
25 °F
89%
72%


Temperature 8-14 Day Outlook



Precipitation 8-14 Day Outlook




Quick Links
Lake of the Ozarks News
Lake of the Ozarks Photos
Lake of the Ozarks Videos




About Us
Contact Us
Site Map
Search Site
Advertise With Us
   
Ozarks.USLakes.info
THE LAKE OF THE OZARKS WEBSITE

Copyright 2021, Lakes Online
Privacy    |    Legal